Time,TemperatureF,DewpointF,PressureIn,WindDirection,WindDirectionDegrees,WindSpeedMPH,WindSpeedGustMPH,Humidity,HourlyPrecipIn,Conditions,Clouds,dailyrainin,SoftwareType,DateUTC
2013-07-28 00:04:00,65.0,57.6,30.06,West,270,0.0,0.0,77,-99.99,,,-99.99,WSDL version 430,2013-07-28 05:04:00,
2013-07-28 00:09:00,64.7,57.6,30.06,West,270,0.0,0.0,78,-99.99,,,-99.99,WSDL version 430,2013-07-28 05:09:00,
2013-07-28 00:14:00,64.5,57.5,30.06,West,270,0.0,0.0,78,-99.99,,,-99.99,WSDL version 430,2013-07-28 05:14:00,
2013-07-28 00:19:00,64.4,57.4,30.06,West,270,0.0,0.0,78,-99.99,,,-99.99,WSDL version 430,2013-07-28 05:19:00,
2013-07-28 00:24:00,64.3,57.6,30.09,West,270,0.0,0.0,79,-99.99,,,-99.99,WSDL version 430,2013-07-28 05:24:00,
2013-07-28 00:29:00,64.2,57.9,30.09,West,270,0.0,0.0,80,-99.99,,,-99.99,WSDL version 430,2013-07-28 05:29:00,
2013-07-28 00:34:00,64.0,57.8,30.09,West,270,0.0,0.0,80,-99.99,,,-99.99,WSDL version 430,2013-07-28 05:34:00,
2013-07-28 00:39:00,64.0,58.0,30.09,West,270,0.0,0.0,81,-99.99,,,-99.99,WSDL version 430,2013-07-28 05:39:00,
2013-07-28 00:44:00,63.9,57.9,30.09,West,270,0.0,0.0,81,-99.99,,,-99.99,WSDL version 430,2013-07-28 05:44:00,
2013-07-28 00:49:00,63.9,58.0,30.09,West,270,0.0,0.0,81,-99.99,,,-99.99,WSDL version 430,2013-07-28 05:49:00,
2013-07-28 00:54:00,63.7,58.0,30.06,West,270,0.0,0.0,82,-99.99,,,-99.99,WSDL version 430,2013-07-28 05:54:00,
2013-07-28 00:59:00,63.7,58.2,30.06,West,270,0.0,0.0,82,-99.99,,,-99.99,WSDL version 430,2013-07-28 05:59:00,
2013-07-28 01:04:00,63.8,58.2,30.06,West,270,0.0,0.0,82,-99.99,,,-99.99,WSDL version 430,2013-07-28 06:04:00,
2013-07-28 01:09:00,64.5,58.9,30.09,West,270,0.0,0.0,82,-99.99,,,-99.99,WSDL version 430,2013-07-28 06:09:00,
2013-07-28 01:14:00,64.3,58.5,30.09,West,270,0.0,0.0,81,-99.99,,,-99.99,WSDL version 430,2013-07-28 06:14:00,
2013-07-28 01:19:00,64.0,58.4,30.09,West,270,0.0,0.0,82,-99.99,,,-99.99,WSDL version 430,2013-07-28 06:19:00,
2013-07-28 01:24:00,63.8,58.3,30.06,West,270,0.0,0.0,82,-99.99,,,-99.99,WSDL version 430,2013-07-28 06:24:00,
2013-07-28 01:29:00,63.6,58.1,30.06,West,270,0.0,0.0,82,-99.99,,,-99.99,WSDL version 430,2013-07-28 06:29:00,
2013-07-28 01:34:00,63.5,58.0,30.06,West,270,0.0,0.0,82,-99.99,,,-99.99,WSDL version 430,2013-07-28 06:34:00,
2013-07-28 01:39:00,63.5,58.1,30.09,West,270,0.0,0.0,83,-99.99,,,-99.99,WSDL version 430,2013-07-28 06:39:00,
2013-07-28 01:44:00,63.5,58.4,30.09,West,270,0.0,0.0,83,-99.99,,,-99.99,WSDL version 430,2013-07-28 06:44:00,
2013-07-28 01:49:00,63.5,58.4,30.09,West,270,0.0,0.0,83,-99.99,,,-99.99,WSDL version 430,2013-07-28 06:49:00,
2013-07-28 01:54:00,63.5,58.5,30.09,West,270,0.0,0.0,84,-99.99,,,-99.99,WSDL version 430,2013-07-28 06:54:00,
2013-07-28 01:59:00,63.5,58.7,30.09,West,270,0.0,0.0,84,-99.99,,,-99.99,WSDL version 430,2013-07-28 06:59:00,
2013-07-28 02:04:00,63.5,58.9,30.09,West,270,0.0,0.0,85,-99.99,,,-99.99,WSDL version 430,2013-07-28 07:04:00,
2013-07-28 02:09:00,63.5,59.1,30.09,West,270,0.0,0.0,86,-99.99,,,-99.99,WSDL version 430,2013-07-28 07:09:00,
2013-07-28 02:14:00,63.5,59.1,30.09,West,270,0.0,0.0,86,-99.99,,,-99.99,WSDL version 430,2013-07-28 07:14:00,
2013-07-28 02:19:00,63.5,59.1,30.09,West,270,0.0,0.0,86,-99.99,,,-99.99,WSDL version 430,2013-07-28 07:19:00,
2013-07-28 02:24:00,63.5,59.4,30.09,West,270,0.0,0.0,86,-99.99,,,-99.99,WSDL version 430,2013-07-28 07:24:00,
2013-07-28 02:29:00,63.5,59.5,30.09,West,270,0.0,0.0,87,-99.99,,,-99.99,WSDL version 430,2013-07-28 07:29:00,
2013-07-28 02:34:00,63.5,59.5,30.09,West,270,0.0,0.0,87,-99.99,,,-99.99,WSDL version 430,2013-07-28 07:34:00,
2013-07-28 02:39:00,63.6,59.6,30.09,West,270,0.0,0.0,87,-99.99,,,-99.99,WSDL version 430,2013-07-28 07:39:00,
2013-07-28 02:44:00,63.7,60.0,30.09,West,270,0.0,0.0,88,-99.99,,,-99.99,WSDL version 430,2013-07-28 07:44:00,
2013-07-28 02:49:00,63.7,60.0,30.09,West,270,0.0,0.0,88,-99.99,,,-99.99,WSDL version 430,2013-07-28 07:49:00,
2013-07-28 02:54:00,63.7,60.0,30.09,West,270,0.0,0.0,88,-99.99,,,-99.99,WSDL version 430,2013-07-28 07:54:00,
2013-07-28 02:59:00,63.7,60.0,30.09,West,270,0.0,0.0,88,-99.99,,,-99.99,WSDL version 430,2013-07-28 07:59:00,
2013-07-28 03:04:00,63.7,60.0,30.09,West,270,0.0,0.0,88,-99.99,,,-99.99,WSDL version 430,2013-07-28 08:04:00,
2013-07-28 03:09:00,63.7,60.0,30.09,West,270,0.0,0.0,88,-99.99,,,-99.99,WSDL version 430,2013-07-28 08:09:00,
2013-07-28 03:14:00,63.7,60.2,30.09,West,270,0.0,0.0,88,-99.99,,,-99.99,WSDL version 430,2013-07-28 08:14:00,
2013-07-28 03:19:00,63.9,60.5,30.09,West,270,0.0,0.0,89,-99.99,,,-99.99,WSDL version 430,2013-07-28 08:19:00,
2013-07-28 03:24:00,63.9,60.5,30.09,West,270,0.0,0.0,89,-99.99,,,-99.99,WSDL version 430,2013-07-28 08:24:00,
2013-07-28 03:29:00,63.9,60.5,30.09,West,270,0.0,0.0,89,-99.99,,,-99.99,WSDL version 430,2013-07-28 08:29:00,
2013-07-28 03:34:00,63.9,60.5,30.09,West,270,0.0,0.0,89,-99.99,,,-99.99,WSDL version 430,2013-07-28 08:34:00,
2013-07-28 03:39:00,64.0,60.7,30.06,West,270,0.0,0.0,89,-99.99,,,-99.99,WSDL version 430,2013-07-28 08:39:00,
2013-07-28 03:44:00,64.0,60.7,30.06,West,270,0.0,0.0,89,-99.99,,,-99.99,WSDL version 430,2013-07-28 08:44:00,
2013-07-28 03:49:00,64.0,60.8,30.06,West,270,0.0,0.0,89,-99.99,,,-99.99,WSDL version 430,2013-07-28 08:49:00,
2013-07-28 03:54:00,64.2,61.2,30.09,West,270,0.0,0.0,90,-99.99,,,-99.99,WSDL version 430,2013-07-28 08:54:00,
2013-07-28 03:59:00,64.2,61.2,30.09,West,270,0.0,0.0,90,-99.99,,,-99.99,WSDL version 430,2013-07-28 08:59:00,
2013-07-28 04:04:00,64.2,61.2,30.09,West,270,0.0,0.0,90,-99.99,,,-99.99,WSDL version 430,2013-07-28 09:04:00,
2013-07-28 04:09:00,64.3,61.2,30.06,West,270,0.0,0.0,90,-99.99,,,-99.99,WSDL version 430,2013-07-28 09:09:00,
2013-07-28 04:14:00,64.4,61.4,30.06,West,270,0.0,0.0,90,-99.99,,,-99.99,WSDL version 430,2013-07-28 09:14:00,
2013-07-28 04:19:00,64.4,61.4,30.06,West,270,0.0,0.0,90,-99.99,,,-99.99,WSDL version 430,2013-07-28 09:19:00,
2013-07-28 04:24:00,64.4,61.4,30.06,West,270,0.0,0.0,90,-99.99,,,-99.99,WSDL version 430,2013-07-28 09:24:00,
2013-07-28 04:29:00,64.4,61.4,30.06,West,270,0.0,0.0,90,-99.99,,,-99.99,WSDL version 430,2013-07-28 09:29:00,
2013-07-28 04:34:00,64.4,61.4,30.06,West,270,0.0,0.0,90,-99.99,,,-99.99,WSDL version 430,2013-07-28 09:34:00,
2013-07-28 04:39:00,64.4,61.4,30.09,West,270,0.0,0.0,90,-99.99,,,-99.99,WSDL version 430,2013-07-28 09:39:00,
2013-07-28 04:44:00,64.6,61.6,30.09,West,270,0.0,0.0,90,-99.99,,,-99.99,WSDL version 430,2013-07-28 09:44:00,
2013-07-28 04:54:00,64.6,61.6,30.09,West,270,0.0,0.0,90,-99.99,,,-99.99,WSDL version 430,2013-07-28 09:54:00,
2013-07-28 04:59:00,64.6,61.6,30.09,West,270,0.5,1.6,90,-99.99,,,-99.99,WSDL version 430,2013-07-28 09:59:00,
2013-07-28 05:04:00,64.6,61.8,30.09,West,270,0.3,1.6,91,-99.99,,,-99.99,WSDL version 430,2013-07-28 10:04:00,
2013-07-28 05:09:00,64.6,61.9,30.09,West,270,0.0,1.1,91,-99.99,,,-99.99,WSDL version 430,2013-07-28 10:09:00,
2013-07-28 05:14:00,64.6,61.8,30.09,West,270,0.0,1.6,91,-99.99,,,-99.99,WSDL version 430,2013-07-28 10:14:00,
2013-07-28 05:19:00,64.6,61.6,30.09,West,270,0.0,1.6,90,-99.99,,,-99.99,WSDL version 430,2013-07-28 10:19:00,
2013-07-28 05:24:00,64.6,61.6,30.09,West,270,0.0,0.0,90,-99.99,,,-99.99,WSDL version 430,2013-07-28 10:24:00,
2013-07-28 05:29:00,64.6,61.6,30.09,West,270,0.0,0.0,90,-99.99,,,-99.99,WSDL version 430,2013-07-28 10:29:00,
2013-07-28 05:34:00,64.6,61.6,30.09,West,270,0.0,0.0,90,-99.99,,,-99.99,WSDL version 430,2013-07-28 10:34:00,
2013-07-28 05:39:00,64.6,61.6,30.09,West,270,0.0,0.0,90,-99.99,,,-99.99,WSDL version 430,2013-07-28 10:39:00,
2013-07-28 05:44:00,64.6,61.6,30.09,West,270,0.0,0.0,90,-99.99,,,-99.99,WSDL version 430,2013-07-28 10:44:00,
2013-07-28 05:49:00,64.6,61.9,30.09,West,270,0.0,0.0,91,-99.99,,,-99.99,WSDL version 430,2013-07-28 10:49:00,
2013-07-28 05:54:00,64.6,61.9,30.09,West,270,0.0,0.0,91,-99.99,,,-99.99,WSDL version 430,2013-07-28 10:54:00,
2013-07-28 05:59:00,64.6,61.9,30.09,West,270,0.0,0.0,91,-99.99,,,-99.99,WSDL version 430,2013-07-28 10:59:00,
2013-07-28 06:04:00,64.6,62.0,30.09,West,270,0.0,0.0,91,-99.99,,,-99.99,WSDL version 430,2013-07-28 11:04:00,
2013-07-28 06:09:00,64.8,62.1,30.09,West,270,0.0,0.0,91,-99.99,,,-99.99,WSDL version 430,2013-07-28 11:09:00,
2013-07-28 06:14:00,64.8,62.1,30.09,West,270,0.0,0.0,91,-99.99,,,-99.99,WSDL version 430,2013-07-28 11:14:00,
2013-07-28 06:19:00,64.8,62.1,30.09,West,270,0.0,0.0,91,-99.99,,,-99.99,WSDL version 430,2013-07-28 11:19:00,
2013-07-28 06:24:00,64.8,62.1,30.09,West,270,0.0,0.0,91,-99.99,,,-99.99,WSDL version 430,2013-07-28 11:24:00,
2013-07-28 06:29:00,64.8,62.1,30.09,West,270,0.0,0.0,91,-99.99,,,-99.99,WSDL version 430,2013-07-28 11:29:00,
2013-07-28 06:34:00,64.8,62.1,30.09,West,270,0.0,0.0,91,-99.99,,,-99.99,WSDL version 430,2013-07-28 11:34:00,
2013-07-28 06:39:00,64.8,62.1,30.09,West,270,0.0,0.0,91,-99.99,,,-99.99,WSDL version 430,2013-07-28 11:39:00,
2013-07-28 06:44:00,64.8,62.1,30.09,West,270,0.0,0.0,91,-99.99,,,-99.99,WSDL version 430,2013-07-28 11:44:00,
2013-07-28 06:49:00,64.8,62.1,30.09,West,270,0.0,0.0,91,-99.99,,,-99.99,WSDL version 430,2013-07-28 11:49:00,
2013-07-28 06:54:00,64.9,62.3,30.12,West,270,0.0,0.0,91,-99.99,,,-99.99,WSDL version 430,2013-07-28 11:54:00,
2013-07-28 06:59:00,64.9,62.5,30.12,West,270,0.0,0.0,92,-99.99,,,-99.99,WSDL version 430,2013-07-28 11:59:00,
2013-07-28 07:04:00,64.9,62.6,30.12,West,270,0.0,0.0,92,-99.99,,,-99.99,WSDL version 430,2013-07-28 12:04:00,
2013-07-28 07:09:00,65.0,62.7,30.09,West,270,0.0,0.0,92,-99.99,,,-99.99,WSDL version 430,2013-07-28 12:09:00,
2013-07-28 07:14:00,65.1,62.8,30.09,West,270,0.0,0.0,92,-99.99,,,-99.99,WSDL version 430,2013-07-28 12:14:00,
2013-07-28 07:19:00,65.1,62.8,30.09,West,270,0.0,0.0,92,-99.99,,,-99.99,WSDL version 430,2013-07-28 12:19:00,
2013-07-28 07:24:00,65.1,62.8,30.12,West,270,0.0,0.0,92,-99.99,,,-99.99,WSDL version 430,2013-07-28 12:24:00,
2013-07-28 07:29:00,65.1,62.8,30.12,West,270,0.0,0.0,92,-99.99,,,-99.99,WSDL version 430,2013-07-28 12:29:00,
2013-07-28 07:34:00,65.2,62.9,30.12,West,270,0.0,1.1,92,-99.99,,,-99.99,WSDL version 430,2013-07-28 12:34:00,
2013-07-28 07:39:00,65.3,63.0,30.12,West,270,0.0,1.1,92,-99.99,,,-99.99,WSDL version 430,2013-07-28 12:39:00,
2013-07-28 07:44:00,65.3,63.0,30.12,West,270,0.0,0.0,92,-99.99,,,-99.99,WSDL version 430,2013-07-28 12:44:00,
2013-07-28 07:49:00,65.3,63.0,30.12,West,270,0.0,0.0,92,-99.99,,,-99.99,WSDL version 430,2013-07-28 12:49:00,
2013-07-28 07:54:00,65.5,63.2,30.12,West,270,0.0,0.0,92,-99.99,,,-99.99,WSDL version 430,2013-07-28 12:54:00,
2013-07-28 07:59:00,65.5,62.9,30.12,West,270,0.0,0.0,91,-99.99,,,-99.99,WSDL version 430,2013-07-28 12:59:00,
2013-07-28 08:04:00,65.5,62.9,30.12,West,270,0.0,0.0,91,-99.99,,,-99.99,WSDL version 430,2013-07-28 13:04:00,
2013-07-28 08:09:00,65.6,63.3,30.12,West,270,0.0,0.0,92,-99.99,,,-99.99,WSDL version 430,2013-07-28 13:09:00,
2013-07-28 08:14:00,65.7,63.3,30.12,West,270,0.0,0.0,92,-99.99,,,-99.99,WSDL version 430,2013-07-28 13:14:00,
2013-07-28 08:19:00,65.7,63.3,30.12,West,270,0.0,0.0,92,-99.99,,,-99.99,WSDL version 430,2013-07-28 13:19:00,
2013-07-28 08:24:00,65.7,63.3,30.12,West,270,1.1,1.6,92,-99.99,,,-99.99,WSDL version 430,2013-07-28 13:24:00,
2013-07-28 08:29:00,65.8,63.3,30.12,SSE,158,1.5,2.0,92,-99.99,,,-99.99,WSDL version 430,2013-07-28 13:29:00,
2013-07-28 08:34:00,65.8,63.5,30.12,SSE,158,0.0,2.0,92,-99.99,,,-99.99,WSDL version 430,2013-07-28 13:34:00,
2013-07-28 08:39:00,65.8,63.5,30.12,SSE,158,0.5,2.0,92,-99.99,,,-99.99,WSDL version 430,2013-07-28 13:39:00,
2013-07-28 08:49:00,65.8,63.2,30.12,SSE,158,1.1,1.6,91,-99.99,,,-99.99,WSDL version 430,2013-07-28 13:49:00,
2013-07-28 08:54:00,65.9,63.2,30.12,SSE,158,0.7,1.6,91,-99.99,,,-99.99,WSDL version 430,2013-07-28 13:54:00,
2013-07-28 08:59:00,66.6,64.2,30.12,SSE,158,0.0,1.3,92,-99.99,,,-99.99,WSDL version 430,2013-07-28 13:59:00,
2013-07-28 09:04:00,67.1,64.0,30.12,SSE,158,0.2,1.6,90,-99.99,,,-99.99,WSDL version 430,2013-07-28 14:04:00,
2013-07-28 09:09:00,66.8,63.3,30.12,South,180,0.0,2.0,88,-99.99,,,-99.99,WSDL version 430,2013-07-28 14:09:00,
2013-07-28 09:14:00,67.5,63.3,30.12,SSE,158,0.0,2.0,86,-99.99,,,-99.99,WSDL version 430,2013-07-28 14:14:00,
2013-07-28 09:19:00,67.8,62.5,30.12,SSE,158,0.0,1.6,83,-99.99,,,-99.99,WSDL version 430,2013-07-28 14:19:00,
2013-07-28 09:24:00,67.8,62.2,30.12,SSE,158,0.0,1.1,82,-99.99,,,-99.99,WSDL version 430,2013-07-28 14:24:00,
2013-07-28 09:29:00,68.1,62.1,30.12,SSE,158,0.7,2.7,81,-99.99,,,-99.99,WSDL version 430,2013-07-28 14:29:00,
2013-07-28 09:34:00,68.0,61.1,30.12,South,180,1.2,2.7,79,-99.99,,,-99.99,WSDL version 430,2013-07-28 14:34:00,
2013-07-28 09:39:00,67.7,60.6,30.12,WSW,248,0.5,2.5,78,-99.99,,,-99.99,WSDL version 430,2013-07-28 14:39:00,
2013-07-28 09:44:00,67.7,60.7,30.12,SE,135,0.0,2.5,78,-99.99,,,-99.99,WSDL version 430,2013-07-28 14:44:00,
2013-07-28 09:49:00,68.1,61.0,30.12,SE,135,1.0,2.5,78,-99.99,,,-99.99,WSDL version 430,2013-07-28 14:49:00,
2013-07-28 09:54:00,68.5,61.3,30.12,SE,144,1.1,2.5,78,-99.99,,,-99.99,WSDL version 430,2013-07-28 14:54:00,
2013-07-28 09:59:00,68.5,60.6,30.12,WSW,243,1.5,2.5,76,-99.99,,,-99.99,WSDL version 430,2013-07-28 14:59:00,
2013-07-28 10:04:00,68.5,60.0,30.12,SSE,164,0.1,3.1,74,-99.99,,,-99.99,WSDL version 430,2013-07-28 15:04:00,
2013-07-28 10:09:00,68.5,60.1,30.12,SSE,150,1.2,3.1,74,-99.99,,,-99.99,WSDL version 430,2013-07-28 15:09:00,
2013-07-28 10:14:00,68.6,60.0,30.12,West,270,1.4,3.1,74,-99.99,,,-99.99,WSDL version 430,2013-07-28 15:14:00,
2013-07-28 10:19:00,68.7,60.1,30.12,WNW,293,0.0,2.7,74,-99.99,,,-99.99,WSDL version 430,2013-07-28 15:19:00,
2013-07-28 10:24:00,68.7,60.0,30.12,SSE,158,1.3,2.0,74,-99.99,,,-99.99,WSDL version 430,2013-07-28 15:24:00,
2013-07-28 10:29:00,68.7,59.7,30.12,SSW,198,0.8,2.2,73,-99.99,,,-99.99,WSDL version 430,2013-07-28 15:29:00,
2013-07-28 10:34:00,68.7,59.7,30.12,SE,135,0.7,2.2,73,-99.99,,,-99.99,WSDL version 430,2013-07-28 15:34:00,
2013-07-28 10:44:00,69.1,60.2,30.12,SE,135,0.5,2.0,73,-99.99,,,-99.99,WSDL version 430,2013-07-28 15:44:00,
2013-07-28 10:49:00,69.3,60.2,30.12,SE,135,0.0,1.6,73,-99.99,,,-99.99,WSDL version 430,2013-07-28 15:49:00,
2013-07-28 10:54:00,69.4,60.0,30.12,SE,146,0.4,1.6,72,-99.99,,,-99.99,WSDL version 430,2013-07-28 15:54:00,
2013-07-28 10:59:00,69.6,60.2,30.12,ESE,113,0.6,2.2,72,-99.99,,,-99.99,WSDL version 430,2013-07-28 15:59:00,
2013-07-28 11:04:00,69.9,60.3,30.12,SE,135,0.8,2.2,71,-99.99,,,-99.99,WSDL version 430,2013-07-28 16:04:00,
2013-07-28 11:09:00,70.2,60.4,30.12,SSE,167,0.5,2.2,71,-99.99,,,-99.99,WSDL version 430,2013-07-28 16:09:00,
2013-07-28 11:14:00,70.2,59.6,30.12,South,186,0.7,2.7,69,-99.99,,,-99.99,WSDL version 430,2013-07-28 16:14:00,
2013-07-28 11:19:00,70.2,59.8,30.12,SSE,158,0.9,2.9,70,-99.99,,,-99.99,WSDL version 430,2013-07-28 16:19:00,
2013-07-28 11:24:00,70.3,59.7,30.12,SSE,158,1.8,3.1,69,-99.99,,,-99.99,WSDL version 430,2013-07-28 16:24:00,
2013-07-28 11:29:00,70.3,59.7,30.12,SW,214,1.3,3.1,69,-99.99,,,-99.99,WSDL version 430,2013-07-28 16:29:00,
2013-07-28 11:34:00,70.4,59.4,30.12,WSW,248,1.0,2.7,68,-99.99,,,-99.99,WSDL version 430,2013-07-28 16:34:00,
2013-07-28 11:39:00,70.6,59.5,30.12,SE,135,0.9,2.5,68,-99.99,,,-99.99,WSDL version 430,2013-07-28 16:39:00,
2013-07-28 11:44:00,72.0,60.4,30.12,South,178,0.6,3.8,67,-99.99,,,-99.99,WSDL version 430,2013-07-28 16:44:00,
2013-07-28 11:49:00,72.6,60.3,30.12,SSW,209,0.1,3.8,65,-99.99,,,-99.99,WSDL version 430,2013-07-28 16:49:00,
2013-07-28 11:54:00,72.3,59.3,30.09,SW,214,1.2,2.7,64,-99.99,,,-99.99,WSDL version 430,2013-07-28 16:54:00,
2013-07-28 11:59:00,72.2,58.8,30.09,South,173,1.8,4.9,63,-99.99,,,-99.99,WSDL version 430,2013-07-28 16:59:00,
2013-07-28 12:04:00,72.5,58.9,30.09,South,185,0.5,4.9,62,-99.99,,,-99.99,WSDL version 430,2013-07-28 17:04:00,
2013-07-28 12:09:00,73.6,58.6,30.09,SW,231,0.1,2.5,60,-99.99,,,-99.99,WSDL version 430,2013-07-28 17:09:00,
2013-07-28 12:14:00,73.5,58.0,30.09,SSW,203,0.7,2.5,58,-99.99,,,-99.99,WSDL version 430,2013-07-28 17:14:00,
2013-07-28 12:19:00,73.0,57.0,30.09,SSW,209,0.9,2.5,57,-99.99,,,-99.99,WSDL version 430,2013-07-28 17:19:00,
2013-07-28 12:24:00,72.4,56.4,30.09,SSE,166,0.6,2.2,57,-99.99,,,-99.99,WSDL version 430,2013-07-28 17:24:00,
2013-07-28 12:29:00,72.3,57.5,30.09,South,178,1.7,2.9,60,-99.99,,,-99.99,WSDL version 430,2013-07-28 17:29:00,
2013-07-28 12:34:00,72.0,56.4,30.09,SSW,194,1.1,3.1,58,-99.99,,,-99.99,WSDL version 430,2013-07-28 17:34:00,
2013-07-28 12:39:00,71.8,56.0,30.12,SSW,212,1.3,3.1,58,-99.99,,,-99.99,WSDL version 430,2013-07-28 17:39:00,
2013-07-28 12:49:00,71.6,55.9,30.12,WSW,248,0.4,2.2,58,-99.99,,,-99.99,WSDL version 430,2013-07-28 17:49:00,
2013-07-28 12:54:00,72.4,56.3,30.12,South,180,1.1,2.2,57,-99.99,,,-99.99,WSDL version 430,2013-07-28 17:54:00,
2013-07-28 12:59:00,73.0,57.1,30.12,South,180,0.0,2.2,58,-99.99,,,-99.99,WSDL version 430,2013-07-28 17:59:00,
2013-07-28 13:04:00,72.6,57.0,30.12,SSE,163,1.0,1.6,58,-99.99,,,-99.99,WSDL version 430,2013-07-28 18:04:00,
2013-07-28 13:14:00,72.1,56.7,30.12,SW,222,1.2,2.2,59,-99.99,,,-99.99,WSDL version 430,2013-07-28 18:14:00,
2013-07-28 13:19:00,72.0,56.5,30.12,SW,233,0.9,2.9,58,-99.99,,,-99.99,WSDL version 430,2013-07-28 18:19:00,
2013-07-28 13:24:00,72.2,57.0,30.12,SSW,203,1.3,2.9,59,-99.99,,,-99.99,WSDL version 430,2013-07-28 18:24:00,
2013-07-28 13:29:00,73.0,57.6,30.12,SSW,203,0.8,2.2,58,-99.99,,,-99.99,WSDL version 430,2013-07-28 18:29:00,
2013-07-28 13:34:00,72.9,57.4,30.12,SSW,203,1.2,2.0,58,-99.99,,,-99.99,WSDL version 430,2013-07-28 18:34:00,
2013-07-28 13:39:00,72.5,56.8,30.12,SW,230,0.0,2.5,58,-99.99,,,-99.99,WSDL version 430,2013-07-28 18:39:00,
2013-07-28 13:44:00,72.3,57.0,30.12,SW,216,0.1,2.5,59,-99.99,,,-99.99,WSDL version 430,2013-07-28 18:44:00,
2013-07-28 13:49:00,72.1,56.7,30.12,SSW,203,1.3,2.5,58,-99.99,,,-99.99,WSDL version 430,2013-07-28 18:49:00,
2013-07-28 13:54:00,72.0,56.5,30.12,SSE,166,0.5,2.5,58,-99.99,,,-99.99,WSDL version 430,2013-07-28 18:54:00,
2013-07-28 13:59:00,72.0,56.5,30.12,South,171,0.2,2.0,58,-99.99,,,-99.99,WSDL version 430,2013-07-28 18:59:00,
2013-07-28 14:04:00,72.1,57.2,30.12,WNW,293,0.0,2.2,59,-99.99,,,-99.99,WSDL version 430,2013-07-28 19:04:00,
2013-07-28 14:09:00,72.4,57.3,30.12,ESE,113,0.4,2.5,59,-99.99,,,-99.99,WSDL version 430,2013-07-28 19:09:00,
2013-07-28 14:14:00,72.4,57.4,30.12,South,171,0.0,2.5,59,-99.99,,,-99.99,WSDL version 430,2013-07-28 19:14:00,
2013-07-28 14:19:00,73.2,57.3,30.12,SSW,209,1.2,2.2,58,-99.99,,,-99.99,WSDL version 430,2013-07-28 19:19:00,
2013-07-28 14:29:00,72.9,56.8,30.12,SSW,203,1.6,2.5,57,-99.99,,,-99.99,WSDL version 430,2013-07-28 19:29:00,
2013-07-28 14:34:00,73.0,57.2,30.12,WSW,248,1.7,2.7,58,-99.99,,,-99.99,WSDL version 430,2013-07-28 19:34:00,
2013-07-28 14:39:00,73.1,57.5,30.12,South,178,1.2,3.4,58,-99.99,,,-99.99,WSDL version 430,2013-07-28 19:39:00,
2013-07-28 14:44:00,73.6,58.0,30.12,WSW,253,1.5,3.4,58,-99.99,,,-99.99,WSDL version 430,2013-07-28 19:44:00,
2013-07-28 14:49:00,73.8,57.7,30.12,WNW,293,1.3,2.7,57,-99.99,,,-99.99,WSDL version 430,2013-07-28 19:49:00,
2013-07-28 14:54:00,73.6,57.0,30.12,South,173,0.9,2.7,56,-99.99,,,-99.99,WSDL version 430,2013-07-28 19:54:00,
2013-07-28 14:59:00,73.2,56.6,30.12,South,180,0.0,2.7,56,-99.99,,,-99.99,WSDL version 430,2013-07-28 19:59:00,
2013-07-28 15:04:00,73.0,56.8,30.12,South,188,0.1,1.3,57,-99.99,,,-99.99,WSDL version 430,2013-07-28 20:04:00,
2013-07-28 15:09:00,72.9,56.5,30.12,SW,227,1.2,2.2,56,-99.99,,,-99.99,WSDL version 430,2013-07-28 20:09:00,
2013-07-28 15:14:00,73.6,56.9,30.12,WSW,248,0.0,2.2,56,-99.99,,,-99.99,WSDL version 430,2013-07-28 20:14:00,
2013-07-28 15:19:00,73.5,57.0,30.12,WSW,248,0.0,0.9,56,-99.99,,,-99.99,WSDL version 430,2013-07-28 20:19:00,
2013-07-28 15:24:00,73.1,57.4,30.12,SSW,207,1.1,2.0,58,-99.99,,,-99.99,WSDL version 430,2013-07-28 20:24:00,
2013-07-28 15:29:00,73.0,57.5,30.12,SSW,211,1.1,2.0,58,-99.99,,,-99.99,WSDL version 430,2013-07-28 20:29:00,
2013-07-28 15:34:00,72.8,57.0,30.12,SSW,203,0.4,1.6,58,-99.99,,,-99.99,WSDL version 430,2013-07-28 20:34:00,
2013-07-28 15:39:00,73.7,58.1,30.12,SSW,206,1.5,2.2,58,-99.99,,,-99.99,WSDL version 430,2013-07-28 20:39:00,
2013-07-28 15:44:00,74.1,57.7,30.12,SSE,162,1.7,3.1,57,-99.99,,,-99.99,WSDL version 430,2013-07-28 20:44:00,
2013-07-28 15:49:00,73.6,57.0,30.12,South,186,1.6,3.1,56,-99.99,,,-99.99,WSDL version 430,2013-07-28 20:49:00,
2013-07-28 15:54:00,73.2,57.1,30.09,South,180,0.5,2.9,57,-99.99,,,-99.99,WSDL version 430,2013-07-28 20:54:00,
2013-07-28 15:59:00,73.0,57.3,30.09,SSW,200,0.4,1.6,58,-99.99,,,-99.99,WSDL version 430,2013-07-28 20:59:00,
2013-07-28 16:04:00,73.6,58.4,30.09,South,189,0.6,2.5,59,-99.99,,,-99.99,WSDL version 430,2013-07-28 21:04:00,
2013-07-28 16:09:00,74.0,58.6,30.12,SW,215,1.3,2.7,59,-99.99,,,-99.99,WSDL version 430,2013-07-28 21:09:00,
2013-07-28 16:14:00,73.7,58.0,30.12,SW,219,0.7,2.7,58,-99.99,,,-99.99,WSDL version 430,2013-07-28 21:14:00,
2013-07-28 16:19:00,74.4,58.7,30.12,WSW,248,0.0,2.5,58,-99.99,,,-99.99,WSDL version 430,2013-07-28 21:19:00,
2013-07-28 16:24:00,74.7,58.4,30.09,WNW,293,1.0,2.5,57,-99.99,,,-99.99,WSDL version 430,2013-07-28 21:24:00,
2013-07-28 16:29:00,74.5,59.2,30.09,WNW,293,1.3,2.5,59,-99.99,,,-99.99,WSDL version 430,2013-07-28 21:29:00,
2013-07-28 16:34:00,74.6,58.7,30.09,WSW,248,0.5,2.5,58,-99.99,,,-99.99,WSDL version 430,2013-07-28 21:34:00,
2013-07-28 16:39:00,74.0,57.7,30.12,West,260,0.9,2.9,57,-99.99,,,-99.99,WSDL version 430,2013-07-28 21:39:00,
2013-07-28 16:44:00,74.0,58.0,30.12,WNW,293,1.4,2.9,57,-99.99,,,-99.99,WSDL version 430,2013-07-28 21:44:00,
2013-07-28 16:49:00,74.2,57.7,30.12,SW,231,1.3,2.9,56,-99.99,,,-99.99,WSDL version 430,2013-07-28 21:49:00,
2013-07-28 16:54:00,73.7,57.0,30.12,WSW,243,0.5,2.9,56,-99.99,,,-99.99,WSDL version 430,2013-07-28 21:54:00,
2013-07-28 16:59:00,73.4,57.1,30.12,WSW,241,1.0,2.0,57,-99.99,,,-99.99,WSDL version 430,2013-07-28 21:59:00,
2013-07-28 17:04:00,73.7,58.3,30.12,SSW,207,0.0,2.0,59,-99.99,,,-99.99,WSDL version 430,2013-07-28 22:04:00,
2013-07-28 17:09:00,74.9,59.0,30.12,SSW,203,0.0,0.9,58,-99.99,,,-99.99,WSDL version 430,2013-07-28 22:09:00,
2013-07-28 17:14:00,74.6,57.7,30.12,SSW,203,0.4,1.6,56,-99.99,,,-99.99,WSDL version 430,2013-07-28 22:14:00,
2013-07-28 17:19:00,74.1,57.1,30.12,WSW,248,0.0,1.6,56,-99.99,,,-99.99,WSDL version 430,2013-07-28 22:19:00,
2013-07-28 17:24:00,73.7,57.1,30.12,SW,218,1.8,2.9,56,-99.99,,,-99.99,WSDL version 430,2013-07-28 22:24:00,
2013-07-28 17:29:00,73.4,57.2,30.12,West,277,0.1,3.1,57,-99.99,,,-99.99,WSDL version 430,2013-07-28 22:29:00,
2013-07-28 17:34:00,73.7,58.1,30.12,NW,315,0.9,3.6,58,-99.99,,,-99.99,WSDL version 430,2013-07-28 22:34:00,
2013-07-28 17:39:00,73.4,58.0,30.12,NW,305,2.5,3.8,59,-99.99,,,-99.99,WSDL version 430,2013-07-28 22:39:00,
2013-07-28 17:44:00,73.1,58.0,30.12,WNW,284,2.9,4.3,59,-99.99,,,-99.99,WSDL version 430,2013-07-28 22:44:00,
2013-07-28 17:49:00,73.7,58.8,30.12,SSW,203,1.4,4.3,60,-99.99,,,-99.99,WSDL version 430,2013-07-28 22:49:00,
2013-07-28 17:54:00,73.3,58.3,30.12,West,270,0.5,3.4,59,-99.99,,,-99.99,WSDL version 430,2013-07-28 22:54:00,
2013-07-28 17:59:00,72.9,58.4,30.12,West,270,0.8,2.5,60,-99.99,,,-99.99,WSDL version 430,2013-07-28 22:59:00,
2013-07-28 18:04:00,73.1,58.9,30.12,West,270,0.4,2.9,61,-99.99,,,-99.99,WSDL version 430,2013-07-28 23:04:00,
2013-07-28 18:09:00,73.2,59.0,30.12,West,270,1.1,2.9,61,-99.99,,,-99.99,WSDL version 430,2013-07-28 23:09:00,
2013-07-28 18:14:00,73.0,59.1,30.12,West,262,0.0,2.0,62,-99.99,,,-99.99,WSDL version 430,2013-07-28 23:14:00,
2013-07-28 18:19:00,73.3,59.6,30.12,WSW,248,0.0,2.0,62,-99.99,,,-99.99,WSDL version 430,2013-07-28 23:19:00,
2013-07-28 18:24:00,73.9,60.0,30.12,WNW,285,0.7,2.5,62,-99.99,,,-99.99,WSDL version 430,2013-07-28 23:24:00,
2013-07-28 18:29:00,73.4,59.1,30.12,WNW,293,0.0,2.5,61,-99.99,,,-99.99,WSDL version 430,2013-07-28 23:29:00,
2013-07-28 18:34:00,72.9,59.1,30.12,WNW,293,0.0,1.6,62,-99.99,,,-99.99,WSDL version 430,2013-07-28 23:34:00,
2013-07-28 18:39:00,72.5,59.4,30.09,WNW,293,0.0,0.9,63,-99.99,,,-99.99,WSDL version 430,2013-07-28 23:39:00,
2013-07-28 18:44:00,72.2,59.2,30.09,WNW,293,0.0,0.0,64,-99.99,,,-99.99,WSDL version 430,2013-07-28 23:44:00,
2013-07-28 18:49:00,72.3,59.8,30.09,WNW,293,0.0,0.0,65,-99.99,,,-99.99,WSDL version 430,2013-07-28 23:49:00,
2013-07-28 18:54:00,72.6,60.5,30.12,WNW,293,0.0,0.0,66,-99.99,,,-99.99,WSDL version 430,2013-07-28 23:54:00,
2013-07-28 18:59:00,72.4,60.2,30.12,WNW,293,0.0,0.0,66,-99.99,,,-99.99,WSDL version 430,2013-07-28 23:59:00,
2013-07-28 19:04:00,72.1,59.7,30.12,WNW,293,0.0,0.0,65,-99.99,,,-99.99,WSDL version 430,2013-07-29 00:04:00,
2013-07-28 19:09:00,71.8,59.4,30.09,WSW,241,0.9,1.3,65,-99.99,,,-99.99,WSDL version 430,2013-07-29 00:09:00,
2013-07-28 19:14:00,72.3,60.3,30.09,SW,225,0.0,1.3,66,-99.99,,,-99.99,WSDL version 430,2013-07-29 00:14:00,
2013-07-28 19:19:00,72.4,60.4,30.09,SW,225,0.0,0.0,66,-99.99,,,-99.99,WSDL version 430,2013-07-29 00:19:00,
2013-07-28 19:24:00,72.0,60.5,30.09,SW,225,0.0,0.0,67,-99.99,,,-99.99,WSDL version 430,2013-07-29 00:24:00,
2013-07-28 19:29:00,71.8,60.4,30.09,SW,225,0.0,0.0,67,-99.99,,,-99.99,WSDL version 430,2013-07-29 00:29:00,
2013-07-28 19:34:00,72.6,61.7,30.09,SW,225,0.0,0.0,69,-99.99,,,-99.99,WSDL version 430,2013-07-29 00:34:00,
2013-07-28 19:39:00,72.9,61.5,30.09,SW,225,0.0,0.0,67,-99.99,,,-99.99,WSDL version 430,2013-07-29 00:39:00,
2013-07-28 19:44:00,72.3,60.8,30.09,SW,225,0.0,0.0,67,-99.99,,,-99.99,WSDL version 430,2013-07-29 00:44:00,
2013-07-28 19:49:00,71.9,60.4,30.09,SW,225,0.0,0.0,67,-99.99,,,-99.99,WSDL version 430,2013-07-29 00:49:00,
2013-07-28 19:54:00,71.4,60.3,30.12,SW,225,0.0,0.0,68,-99.99,,,-99.99,WSDL version 430,2013-07-29 00:54:00,
2013-07-28 19:59:00,71.2,60.5,30.12,SW,225,0.0,0.0,69,-99.99,,,-99.99,WSDL version 430,2013-07-29 00:59:00,
2013-07-28 20:04:00,71.5,60.8,30.12,SW,225,0.0,0.0,69,-99.99,,,-99.99,WSDL version 430,2013-07-29 01:04:00,
2013-07-28 20:09:00,71.7,61.0,30.12,SW,225,0.0,0.0,69,-99.99,,,-99.99,WSDL version 430,2013-07-29 01:09:00,
2013-07-28 20:14:00,71.3,60.7,30.12,SW,225,0.0,0.0,69,-99.99,,,-99.99,WSDL version 430,2013-07-29 01:14:00,
2013-07-28 20:19:00,71.2,60.9,30.12,SW,233,0.0,0.0,70,-99.99,,,-99.99,WSDL version 430,2013-07-29 01:19:00,
2013-07-28 20:24:00,71.2,60.9,30.12,West,270,0.4,1.3,70,-99.99,,,-99.99,WSDL version 430,2013-07-29 01:24:00,
2013-07-28 20:29:00,70.7,60.6,30.12,West,270,0.0,1.3,70,-99.99,,,-99.99,WSDL version 430,2013-07-29 01:29:00,
2013-07-28 20:34:00,70.4,60.5,30.12,West,270,0.0,0.0,71,-99.99,,,-99.99,WSDL version 430,2013-07-29 01:34:00,
2013-07-28 20:39:00,70.4,60.8,30.12,West,270,0.0,0.0,72,-99.99,,,-99.99,WSDL version 430,2013-07-29 01:39:00,
2013-07-28 20:44:00,70.4,61.0,30.12,West,270,0.0,0.0,72,-99.99,,,-99.99,WSDL version 430,2013-07-29 01:44:00,
2013-07-28 20:49:00,70.2,60.7,30.12,West,270,0.0,0.0,72,-99.99,,,-99.99,WSDL version 430,2013-07-29 01:49:00,
2013-07-28 20:54:00,69.9,60.4,30.12,West,270,0.0,0.0,72,-99.99,,,-99.99,WSDL version 430,2013-07-29 01:54:00,
2013-07-28 20:59:00,69.9,60.9,30.12,West,270,0.0,0.0,73,-99.99,,,-99.99,WSDL version 430,2013-07-29 01:59:00,
2013-07-28 21:04:00,70.7,62.3,30.12,WSW,248,0.0,0.0,75,-99.99,,,-99.99,WSDL version 430,2013-07-29 02:04:00,
2013-07-28 21:09:00,70.7,61.6,30.12,SW,222,0.0,0.0,73,-99.99,,,-99.99,WSDL version 430,2013-07-29 02:09:00,
2013-07-28 21:14:00,70.3,60.8,30.12,South,180,0.0,1.3,72,-99.99,,,-99.99,WSDL version 430,2013-07-29 02:14:00,
2013-07-28 21:23:00,71.1,63.4,30.12,SSW,203,0.0,1.3,77,-99.99,,,-99.99,WSDL version 430,2013-07-29 02:23:00,
2013-07-28 21:28:00,70.9,62.4,30.12,SSW,198,1.0,2.0,75,-99.99,,,-99.99,WSDL version 430,2013-07-29 02:28:00,
2013-07-28 21:33:00,70.3,61.6,30.12,SSW,203,0.0,2.0,74,-99.99,,,-99.99,WSDL version 430,2013-07-29 02:33:00,
2013-07-28 21:40:00,69.7,61.5,30.09,SSW,203,0.4,1.3,75,-99.99,,,-99.99,WSDL version 430,2013-07-29 02:40:00,
2013-07-28 21:45:00,69.3,61.5,30.09,South,180,0.4,2.5,76,-99.99,,,-99.99,WSDL version 430,2013-07-29 02:45:00,
2013-07-28 21:53:00,69.1,61.9,30.09,SSE,158,0.0,2.5,78,-99.99,,,-99.99,WSDL version 430,2013-07-29 02:53:00,
2013-07-28 21:58:00,69.0,62.0,30.09,SSE,158,0.0,1.3,78,-99.99,,,-99.99,WSDL version 430,2013-07-29 02:58:00,
2013-07-28 22:03:00,68.9,62.1,30.09,SSE,158,0.0,0.0,79,-99.99,,,-99.99,WSDL version 430,2013-07-29 03:03:00,
2013-07-28 22:08:00,68.7,61.9,30.12,SSE,158,0.0,0.0,79,-99.99,,,-99.99,WSDL version 430,2013-07-29 03:08:00,
2013-07-28 22:13:00,68.7,61.9,30.12,SSE,158,0.0,0.0,79,-99.99,,,-99.99,WSDL version 430,2013-07-29 03:13:00,
2013-07-28 22:18:00,68.7,61.9,30.12,SSE,158,0.0,0.0,79,-99.99,,,-99.99,WSDL version 430,2013-07-29 03:18:00,
2013-07-28 22:25:00,69.4,63.0,30.12,SSE,158,0.0,0.0,80,-99.99,,,-99.99,WSDL version 430,2013-07-29 03:25:00,
2013-07-28 22:32:00,69.2,62.4,30.12,SSE,158,0.0,0.0,79,-99.99,,,-99.99,WSDL version 430,2013-07-29 03:32:00,
2013-07-28 22:37:00,69.5,62.7,30.12,SSE,158,0.0,0.0,79,-99.99,,,-99.99,WSDL version 430,2013-07-29 03:37:00,
2013-07-28 22:44:00,69.5,62.4,30.12,SSE,158,0.0,0.0,78,-99.99,,,-99.99,WSDL version 430,2013-07-29 03:44:00,
2013-07-28 22:49:00,69.2,62.1,30.12,SSE,158,0.0,0.0,78,-99.99,,,-99.99,WSDL version 430,2013-07-29 03:49:00,
2013-07-28 22:54:00,69.2,62.1,30.12,SSE,158,0.0,0.0,78,-99.99,,,-99.99,WSDL version 430,2013-07-29 03:54:00,
2013-07-28 23:01:00,69.5,62.2,30.12,SSE,158,0.0,0.0,78,-99.99,,,-99.99,WSDL version 430,2013-07-29 04:01:00,
2013-07-28 23:06:00,69.2,61.7,30.12,SSE,158,0.0,0.0,77,-99.99,,,-99.99,WSDL version 430,2013-07-29 04:06:00,
2013-07-28 23:11:00,68.9,61.4,30.12,SSE,158,1.2,2.0,77,-99.99,,,-99.99,WSDL version 430,2013-07-29 04:11:00,
2013-07-28 23:16:00,68.8,61.6,30.12,SSE,158,0.3,2.0,78,-99.99,,,-99.99,WSDL version 430,2013-07-29 04:16:00,
2013-07-28 23:26:00,69.3,63.1,30.09,SSW,203,0.0,2.0,81,-99.99,,,-99.99,WSDL version 430,2013-07-29 04:26:00,
2013-07-28 23:33:00,70.2,62.9,30.09,South,182,0.0,1.6,78,-99.99,,,-99.99,WSDL version 430,2013-07-29 04:33:00,
2013-07-28 23:38:00,69.6,62.1,30.12,SSE,158,0.0,1.6,77,-99.99,,,-99.99,WSDL version 430,2013-07-29 04:38:00,
2013-07-28 23:43:00,69.3,61.7,30.12,SSE,158,0.0,0.9,77,-99.99,,,-99.99,WSDL version 430,2013-07-29 04:43:00,
2013-07-28 23:48:00,69.0,61.5,30.12,SSE,158,0.0,0.0,77,-99.99,,,-99.99,WSDL version 430,2013-07-29 04:48:00,
2013-07-28 23:53:00,68.8,61.4,30.12,SSE,158,0.0,0.0,77,-99.99,,,-99.99,WSDL version 430,2013-07-29 04:53:00,
2013-07-28 23:58:00,68.8,61.6,30.12,SSE,158,0.0,0.0,78,-99.99,,,-99.99,WSDL version 430,2013-07-29 04:58:00,